This is the latest recevied weather packets stored in our database for station/object OE-11051. If no packets are shown the sender has not sent any weather packets the latest 10 day(s).
| Time | Temp. | Humidity | Pressure | Rain* | Wind** | Luminosity | Snow |
|---|---|---|---|---|---|---|---|
| 1787893507 | 19.44° C | 78% | 1010.9 hPa | 0 mm | - | 13 W/m² | - |
| 1787892907 | 18.89° C | 79% | 1010.9 hPa | 0 mm | - | 6 W/m² | - |
| 1787892079 | 19.44° C | 78% | 1010.9 hPa | 0 mm | - | 6 W/m² | - |
| 1787891706 | 19.44° C | 78% | 1010.8 hPa | 0 mm | - | 0 W/m² | - |
| 1787891107 | 19.44° C | 78% | 1010.8 hPa | 0 mm | - | 0 W/m² | - |
| 1787890279 | 18.89° C | 79% | 1011 hPa | 0 mm | - | 0 W/m² | - |
| 1787889906 | 19.44° C | 78% | 1011.2 hPa | 0 mm | - | 0 W/m² | - |
| 1787889307 | 19.44° C | 77% | 1011.3 hPa | 0 mm | - | 0 W/m² | - |
| 1787888706 | 20° C | 75% | 1011.2 hPa | 0 mm | - | 0 W/m² | - |
| 1787888106 | 20° C | 75% | 1011.2 hPa | 0 mm | - | 0 W/m² | - |
| 1787887506 | 19.44° C | 74% | 1011.3 hPa | 0 mm | - | 0 W/m² | - |
| 1787886679 | 20° C | 72% | 1011.3 hPa | 0 mm | - | 0 W/m² | - |
| 1787886306 | 20.56° C | 70% | 1011.2 hPa | 0 mm | - | 0 W/m² | - |
| 1787885707 | 21.11° C | 69% | 1011.3 hPa | 0 mm | - | 0 W/m² | - |
| 1787884880 | 21.11° C | 69% | 1011.4 hPa | 0 mm | - | 0 W/m² | - |
| 1787884507 | 21.11° C | 68% | 1011.2 hPa | 0 mm | - | 0 W/m² | - |
| 1787883907 | 21.11° C | 67% | 1011.2 hPa | 0 mm | - | 0 W/m² | - |
| 1787883080 | 21.11° C | 67% | 1011.3 hPa | 0 mm | - | 0 W/m² | - |
| 1787882707 | 21.11° C | 68% | 1011.4 hPa | 0 mm | - | 0 W/m² | - |
| 1787882105 | 21.11° C | 68% | 1011.2 hPa | 0 mm | - | 0 W/m² | - |
| 1787881280 | 21.11° C | 67% | 1011.1 hPa | 0 mm | - | 0 W/m² | - |
| 1787880907 | 21.11° C | 67% | 1011.2 hPa | 0 mm | - | 0 W/m² | - |
| 1787880307 | 21.67° C | 67% | 1011.2 hPa | 0 mm | - | 0 W/m² | - |
| 1787879479 | 21.67° C | 67% | 1011.3 hPa | 0 mm | - | 0 W/m² | - |
| 1787879106 | 21.67° C | 67% | 1011.3 hPa | 0 mm | - | 0 W/m² | - |
* Rain latest hour (hover to see other rain measurements)
** Current wind speed in m/s (hover to see current wind gust speed)